Location: Dos Palmas
(32.4468°N, 116.8732°W)
Time: 05:27:59
(UTC+00:00)

FALCON 9 DEB - Pass Details

Date: 20 June 2021
Orbit: 358 x 373 km, 53.0° (Epoch: 29 July)

Event Time Altitude Azimuth Distance (km) Brightness Sun altitude
Rises 11:39:59 0° 320° (NW) 2,240 6.7 -11.6°
Reaches altitude 10° 11:42:04 10° 324° (NW) 1,382 5.7 -11.2°
Maximum altitude 11:45:07 59° 45° (NE) 435 3.5 -10.7°
Drops below altitude 10° 11:48:07 10° 126° (SE) 1,362 5.9 -10.2°
Sets 11:50:09 0° 130° (SE) 2,202 6.9 -9.8°
